| time (UTC) | temp C | wind direction | speed KPH | gust KPH | rain 1hr cm | rain 24hr cm | rain mn cm | humidity % | barometer mb |
| 20260504040834 | 13 | 215 | 4.8 | 8.0 | 0.00 | 0.00 | 0.00 | 50 | 978.3 |
| 20260504035305 | 14 | 227 | 3.2 | 9.7 | 0.00 | 0.00 | 0.00 | 50 | 978.3 |
| 20260504033734 | 14 | 232 | 11.3 | 14.5 | 0.00 | 0.00 | 0.00 | 50 | 978.0 |
| 20260504032204 | 14 | 217 | 11.3 | 11.3 | 0.00 | 0.00 | 0.00 | 48 | 978.0 |
| 20260504030634 | 15 | 233 | 14.5 | 16.1 | 0.00 | 0.00 | 0.00 | 47 | 978.0 |
| 20260504025104 | 15 | 217 | 8.0 | 11.3 | 0.00 | 0.00 | 0.00 | 44 | 978.7 |
| 20260504023534 | 15 | 240 | 8.0 | 11.3 | 0.00 | 0.00 | 0.00 | 43 | 978.7 |
| 20260504022004 | 15 | 234 | 9.7 | 9.7 | 0.00 | 0.00 | 0.00 | 43 | 978.7 |
| 20260504020434 | 15 | 243 | 4.8 | 8.0 | 0.00 | 0.00 | 0.00 | 43 | 978.7 |
| 20260504014904 | 15 | 244 | 4.8 | 9.7 | 0.00 | 0.00 | 0.00 | 43 | 978.0 |
| 20260504013334 | 15 | 248 | 4.8 | 8.0 | 0.00 | 0.00 | 0.00 | 43 | 978.0 |
| 20260504011804 | 15 | 240 | 4.8 | 9.7 | 0.00 | 0.00 | 0.00 | 43 | 978.0 |
| 20260504010234 | 15 | 241 | 4.8 | 8.0 | 0.00 | 0.00 | 0.00 | 43 | 978.0 |
| 20260504004734 | 16 | 241 | 3.2 | 8.0 | 0.00 | 0.00 | 0.00 | 43 | 977.6 |
| 20260504003204 | 16 | 240 | 4.8 | 8.0 | 0.00 | 0.00 | 0.00 | 43 | 977.9 |
| 20260504001634 | 16 | 225 | 3.2 | 4.8 | 0.00 | 0.00 | 0.00 | 42 | 978.0 |
| 20260504000104 | 16 | 233 | 3.2 | 4.8 | 0.00 | 0.00 | 0.00 | 40 | 978.0 |
| 20260503234533 | 17 | 240 | 4.8 | 8.0 | 0.00 | 0.00 | 0.00 | 39 | 978.3 |
| 20260503233004 | 17 | 258 | 3.2 | 9.7 | 0.00 | 0.00 | 0.00 | 38 | 978.7 |
| 20260503231433 | 17 | 245 | 1.6 | 11.3 | 0.00 | 0.00 | 0.00 | 37 | 978.7 |
| 20260503225903 | 17 | 160 | 0.0 | 8.0 | 0.00 | 0.00 | 0.00 | 37 | 979.0 |
| 20260503224333 | 17 | 234 | 9.7 | 12.9 | 0.00 | 0.00 | 0.00 | 35 | 979.3 |
| 20260503222833 | 18 | 273 | 3.2 | 3.2 | 0.00 | 0.00 | 0.00 | 38 | 979.3 |
| 20260503221333 | 18 | 247 | 8.0 | 9.7 | 0.00 | 0.00 | 0.00 | 36 | 979.3 |
| 20260503215803 | 18 | 250 | 8.0 | 12.9 | 0.00 | 0.03 | 0.00 | 37 | 979.7 |
| 20260503214233 | 18 | 248 | 8.0 | 14.5 | 0.00 | 0.20 | 0.00 | 35 | 980.0 |
| 20260503212703 | 18 | 233 | 9.7 | 9.7 | 0.00 | 0.20 | 0.00 | 37 | 980.0 |
| 20260503211133 | 18 | 20 | 0.0 | 8.0 | 0.00 | 0.20 | 0.00 | 35 | 980.4 |
| 20260503205604 | 18 | 225 | 3.2 | 4.8 | 0.00 | 0.20 | 0.00 | 34 | 980.4 |
| 20260503204033 | 18 | 269 | 3.2 | 4.8 | 0.00 | 0.20 | 0.00 | 37 | 981.0 |
| 20260503202503 | 17 | 200 | 0.0 | 3.2 | 0.00 | 0.20 | 0.00 | 36 | 981.0 |
| 20260503200933 | 18 | 214 | 4.8 | 14.5 | 0.00 | 0.20 | 0.00 | 35 | 981.4 |
| 20260503195403 | 18 | 103 | 3.2 | 4.8 | 0.00 | 0.20 | 0.00 | 37 | 981.7 |
| 20260503194157 | 17 | 232 | 8.0 | 12.9 | 0.00 | 0.20 | 0.00 | 36 | 982.1 |
| 20260503194001 | 17 | 232 | 8.0 | 12.9 | 0.00 | 0.20 | 0.00 | 36 | 982.1 |
| 20260503193833 | 17 | 232 | 8.0 | 12.9 | 0.00 | 0.20 | 0.00 | 36 | 982.1 |
| 20260503192305 | 17 | 231 | 4.8 | 11.3 | 0.00 | 0.20 | 0.00 | 35 | 982.1 |
| 20260503190733 | 17 | 24 | 1.6 | 3.2 | 0.00 | 0.20 | 0.00 | 36 | 982.4 |
| 20260503185203 | 16 | 220 | 4.8 | 12.9 | 0.00 | 0.20 | 0.00 | 35 | 982.4 |
| 20260503183633 | 16 | 157 | 4.8 | 9.7 | 0.00 | 0.20 | 0.00 | 39 | 982.7 |
| 20260503182103 | 16 | 250 | 8.0 | 12.9 | 0.00 | 0.20 | 0.00 | 36 | 982.7 |
| 20260503180533 | 16 | 256 | 3.2 | 12.9 | 0.00 | 0.20 | 0.00 | 37 | 983.1 |
| 20260503175003 | 15 | 242 | 9.7 | 12.9 | 0.00 | 0.20 | 0.00 | 40 | 983.2 |
| 20260503173433 | 16 | 241 | 8.0 | 8.0 | 0.00 | 0.20 | 0.00 | 41 | 983.4 |
| 20260503171903 | 15 | 245 | 4.8 | 11.3 | 0.00 | 0.20 | 0.00 | 39 | 983.7 |
| 20260503170333 | 15 | 230 | 8.0 | 11.3 | 0.00 | 0.20 | 0.00 | 38 | 983.9 |
| 20260503160133 | 13 | 245 | 3.2 | 9.7 | 0.00 | 0.20 | 0.00 | 44 | 984.4 |
| 20260503131133 | 8 | 218 | 3.2 | 3.2 | 0.00 | 0.20 | 0.00 | 81 | 984.4 |
| 20260503090403 | 5 | 80 | 1.6 | 3.2 | 0.00 | 0.20 | 0.00 | 96 | 982.7 |
| 20260503080232 | 5 | 78 | 0.0 | 3.2 | 0.00 | 0.20 | 0.00 | 98 | 982.7 |
| 20260503071603 | 6 | 42 | 3.2 | 3.2 | 0.00 | 0.20 | 0.00 | 98 | 982.7 |
| 20260503054332 | 6 | 103 | 1.6 | 4.8 | 0.00 | 0.20 | 0.00 | 97 | 982.4 |
| 20260503052802 | 6 | 110 | 3.2 | 3.2 | 0.00 | 0.20 | 0.00 | 97 | 982.4 |
| 20260503051232 | 6 | 100 | 0.0 | 3.2 | 0.00 | 0.20 | 0.00 | 97 | 982.7 |
| 20260503045703 | 6 | 62 | 4.8 | 8.0 | 0.00 | 0.20 | 0.20 | 97 | 982.1 |
| 20260503044132 | 6 | 135 | 3.2 | 3.2 | 0.00 | 0.20 | 0.20 | 97 | 982.1 |
| 20260503042602 | 6 | 93 | 1.6 | 3.2 | 0.00 | 0.20 | 0.20 | 97 | 982.1 |